World > North America > United States > Washington

Hourly Brem, WA Regional Weather

Feedback E-mail the Weather

Quick WX

Brem, WA Weather Maps

°F °C°F °C
Brem Weather Map
UTC Time: 7/2/2022, 17:01
Your Time:

Brem, WA Regional Weather

Expires:202207021700;;558544
ASUS46 KSEW 021620
RWRWA 

WASHINGTON REGIONAL WEATHER ROUNDUP
NATIONAL WEATHER SERVICE SEATTLE WA
900 AM PDT SAT JUL 02 2022

NOTE:"FAIR" INDICATES FEW OR NO CLOUDS BELOW 12,000 FEET WITH NO 
SIGNIFICANT WEATHER AND/OR OBSTRUCTIONS TO VISIBILITY.


WAZ507-509-555>559-021700-
SEATTLE, TACOMA, EVERETT, AND VICINITY
  
CITY           SKY/WX    TMP DP  RH WIND       PRES   REMARKS
EVERETT        CLOUDY    55  50  83 NE3       30.01S                  
BOEING FIELD   CLOUDY    58  53  84 CALM      30.00F                  
RENTON         CLOUDY    58  52  80 N3        30.00S                  
SEATAC AIRPORT CLOUDY    58  52  80 NW3       30.00F                  
JBLM-MCCHORD   CLOUDY    57  57 100 NW5       30.00F                  
PUYALLUP       CLOUDY    55  55 100 CALM      30.01S FOG              
BREMERTON      CLOUDY    57  55  93 CALM      30.01S                  
JBLM-FT LEWIS  CLOUDY    56  53  88 SW3       29.99S                  
TACOMA NARROWS CLOUDY    56  55  97 CALM      30.01S FOG              
$$
 

SKY/WX - Weather  TMP - Temperature  DP - Dew Point  RH - Humidity
WIND - Wind Direction/Speed PRES - Barometric Pressure VSB - Visibility
WCI - Wind Chill Index E13G22 Wind - East Wind 13 mph/Gusts of 22 mph

Trending Headlines

Brem Radar Loop



Brem Quick Facts


National Two Day Weather Forecast


E-mail the Brem Weather Forecast

Voice your opinion or tell us about page issues...